{"data":{"norad_id":33207,"intl_designator":"2008-035A","name":"ECHOSTAR 11","alt_names":[],"object_type":"PAYLOAD","status":"ACTIVE","operator":null,"country":"US","launch_date":"2008-07-16","launch_site_code":"SEAL","launch_vehicle":null,"mission":null,"orbit_class":"UNKNOWN","rcs_meters":32.4063,"size_class":null,"mass_kg":null,"dimensions":null,"purposes":["comms"],"wikipedia_slug":null,"has_3d_model":false,"image_url":null,"decayed_at":null,"tle_current":{"epoch":"2026-05-25T03:13:18.316128Z","epoch_age_seconds":60128,"freshness":"FRESH","line1":"1 33207U 08035A   26145.13423977 -.00000060  00000+0  00000+0 0  9990","line2":"2 33207   0.9476  84.4162 0002472 323.2281 133.6060  1.00272274 50980","mean_motion":1.00272274,"eccentricity":0.0002472,"inclination_deg":0.9476,"raan_deg":84.4162,"arg_perigee_deg":323.2281,"mean_anomaly_deg":133.606,"bstar":0,"rev_number":5098,"period_min":1436.0899005841,"perigee_km":35776.034789443,"apogee_km":35796.88096515,"semimajor_km":42164.594877297,"source":"CELESTRAK","updated_at":"2026-05-25T13:38:13.860068Z"}}}